TIANXING-1 (52901 NORAD) Tracking and Keplerian Element Data

This shows tracking and keplerian element data for the satellite.

Feedback or suggestion? Click here.




ElementValue
Catalog52901
NameTIANXING-1
Epoch Orbit1196
Epoch Day248.14110041
Epoch Year2022
RAAN292.8611
Inclination96.7576
Eccentricity0.0011382
Argument of Perigee263.4626
Mean Anonmoly178.3442
Mean Motion15.96025913
Decay Rate0.00187921
L11 52901U 22066A 22248.14110041 .00187921 15542-4 46033-3 0 9991
L22 52901 96.7576 292.8611 0011382 263.4626 178.3442 15.96025913 11969

Live tracking and technical data element details for TIANXING-1 (NORAD 52901). TIANXING-1 can be tracked NOW for your location showing map with azimuth and elevation plus other details from your city location.

Track the satellite on the map from your city or location and see movement details for azimuth, elevation, latitude, longitude, range, height, and movement on the map or in text.







IsCatalogInMostPopularTable: catalog: 52901, numindb: 5
Update: records affected: 1



GetName: 52901 TIANXING-1

Hit Count: updated at: Sun, 25 Sep 2022 09:18:07 GMT